Tracking 25734 objects as of 28-May-2022
HD Live streaming from Space Station
objects crossing your sky now

SL-12 R/B(AUX MOTOR)

Track SL-12 R/B(AUX MOTOR) now!
10-day predictions


NORAD ID: 13609
Int'l Code: 1982-100G
Perigee: 309.4 km
Apogee: 13,349.4 km
Inclination: 52.0 °
Period: 251.6 minutes
Semi major axis: 13200 km
RCS: 0.8417 m2 (medium)
Launch date: October 12, 1982
Source: Commonwealth of Independent States (former USSR) (CIS)
Launch site: TYURATAM MISSILE AND SPACE COMPLEX (TTMTR)

Note: This is a ROCKET BODY
aabbcc
Your satellite tracking list
Your tracking list is empty




NASA's NSSDC Master Catalog

Two Line Element Set (TLE):
1 13609U 82100G   22147.65122496  .00005603  00000-0  86825-3 0  9997
2 13609  52.0090 187.0607 4939244 134.1856 278.9701  5.72431414727729
Source of the keplerian elements: AFSPC